Regional Weather Roundup
Issued by NWS

Home | Current Version | Previous Version | Text Only | Print | Product List | Glossary On
Versions: 1 2 3 4 5 6 7 8 9 10 11 12 13 14 15 16 17 18 19 20 21 22 23 24 25 26 27 28
000
ASUS45 KBOI 251710
RWRID

IDAHO REGIONAL WEATHER ROUNDUP
NATIONAL WEATHER SERVICE BOISE ID
1100 AM MDT MON SEP 25 2017

NOTE: "FAIR" INDICATES FEW OR NO CLOUDS BELOW 12000 FEET
WITH NO SIGNIFICANT WEATHER AND/OR OBSTRUCTIONS TO VISIBILITY

IDZ012-014-251800-
SOUTHWEST IDAHO


CITY           SKY/WX    TMP DP  RH WIND       PRES   REMARKS
BOISE          SUNNY     53  34  48 SE5       30.14S
CALDWELL       SUNNY     52  40  63 CALM      30.14F
MOUNTAIN HOME  SUNNY     51  36  58 CALM      30.13S
$$

IDZ016-017-251800-
SOUTHCENTRAL IDAHO


CITY           SKY/WX    TMP DP  RH WIND       PRES   REMARKS
BURLEY         SUNNY     51  36  56 VRB5      30.14R
JEROME         SUNNY     49  37  63 SW7       30.15R
TWIN FALLS     SUNNY     54  35  48 W13       30.14R
$$

IDZ019>023-251800-
SOUTHEAST IDAHO


CITY           SKY/WX    TMP DP  RH WIND       PRES   REMARKS
IDAHO FALLS    MOSUNNY   47  35  63 W7        30.15F
POCATELLO      MOSUNNY   52  34  50 N3        30.16S
REXBURG        SUNNY     46  32  58 VRB6      30.15S
$$

IDZ006-010-011-018-031-032-251800-
CENTRAL IDAHO MOUNTAINS


CITY           SKY/WX    TMP DP  RH WIND       PRES   REMARKS
MCCALL         SUNNY     49  37  63 VRB3      30.14S
HAILEY         MOSUNNY   45  28  53 NW10      30.16R
STANLEY          N/A     42  27  55 VRB5      30.19S
SALMON         CLOUDY    49  33  54 NE3       30.15F
CHALLIS        CLOUDY    42  30  62 CALM      30.17S
$$

IDZ002-004-006-007-026-251800-
NORTHERN IDAHO


CITY           SKY/WX    TMP DP  RH WIND       PRES   REMARKS
LEWISTON       MOSUNNY   59  45  59 NE7       30.10R
LOWELL           N/A     50  44  80 CALM      30.17S
COEUR D`ALENE  PTSUNNY   57  45  64 S9        30.09S
MULLAN PASS    CLOUDY    43  35  73 VRB3      30.13S
$$




USA.gov is the U.S. government's official web portal to all federal, state and local government web resources and services.